Weather History for Ruidoso, NM

Change the Weather History Date:

Monday, May 6, 2013

  Actual Average Record
Temperature  
Mean Temperature 55 °F -  
Max Temperature 66 °F 70 °F 84 °F (2000)
Min Temperature 44 °F 46 °F 39 °F (2006)
Degree Days  
Heating Degree Days 10    
Growing Degree Days 5 (Base 50)    
Moisture  
Dew Point 23 °F    
Average Humidity 30    
Maximum Humidity 41    
Minimum Humidity 21    
Precipitation  
Precipitation 0.00 in - - ()
Sea Level Pressure  
Sea Level Pressure 30.14 in    
Wind  
Wind Speed 10 mph (SSW)    
Max Wind Speed 28 mph    
Max Gust Speed 34 mph    
Visibility 10 miles    
Events      
Averages and records for this station are not official NWS values.
T = Trace of Precipitation, MM = Missing Value Source: NWS Daily Summary

Daily Weather History Graph

Daily Weather History Graph

Search for Another Location

Airport:

Trip Planner

Search our weather history database for the weather conditions in past years. The results will help you decide how hot, cold, wet, or windy it might be!

Date:

Astronomy

May. 06, 2013 Rise Set
Actual Time 6:08 AM MDT 7:49 PM MDT
Civil Twilight 5:42 AM MDT 8:15 PM MDT
Nautical Twilight 5:09 AM MDT 8:48 PM MDT
Astronomical Twilight 4:35 AM MDT 9:22 PM MDT
Moon 4:02 AM MDT (5/6) 4:59 PM MDT (5/6)
Length of Visible Light 14h 33m
Length of Day
13h 40m
Waning Crescent, 10% of the Moon is Illuminated
May 6
Waning Crescent
May 9
New
May 17
First Quarter
May 24
Full
May 31
Last Quarter

Hourly Weather History & Observations

Time (MDT) Temp. Windchill Dew Point Humidity Pressure Visibility Wind Dir Wind Speed Gust Speed Precip Events Conditions
12:15 AM 48.2 °F - 14.0 °F 25% 30.20 in 10.0 mi SE 9.2 mph - N/A   Partly Cloudy
12:35 AM 48.2 °F - 14.0 °F 25% 30.20 in 10.0 mi SE 6.9 mph - N/A   Clear
12:55 AM 46.4 °F 43.5 °F 14.0 °F 27% 30.20 in 10.0 mi East 5.8 mph - N/A   Clear
1:15 AM 46.4 °F 42.9 °F 14.0 °F 27% 30.19 in 10.0 mi ESE 6.9 mph - N/A   Scattered Clouds
1:35 AM 46.4 °F 45.2 °F 14.0 °F 27% 30.18 in 10.0 mi ENE 3.5 mph - N/A   Partly Cloudy
1:55 AM 46.4 °F 42.4 °F 14.0 °F 27% 30.18 in 10.0 mi ESE 8.1 mph - N/A   Clear
2:15 AM 46.4 °F 43.5 °F 14.0 °F 27% 30.17 in 10.0 mi East 5.8 mph - N/A   Clear
2:35 AM 44.6 °F 43.1 °F 14.0 °F 29% 30.17 in 10.0 mi NE 3.5 mph - N/A   Scattered Clouds
2:55 AM 44.6 °F - 15.8 °F 31% 30.17 in 10.0 mi Calm Calm - N/A   Scattered Clouds
3:15 AM 44.6 °F - 15.8 °F 31% 30.17 in 10.0 mi Calm Calm - N/A   Scattered Clouds
3:35 AM 44.6 °F 43.1 °F 15.8 °F 31% 30.16 in 10.0 mi North 3.5 mph - N/A   Mostly Cloudy
3:55 AM 44.6 °F 41.4 °F 15.8 °F 31% 30.15 in 10.0 mi NE 5.8 mph - N/A   Partly Cloudy
4:15 AM 46.4 °F - 17.6 °F 32% 30.15 in 10.0 mi Calm Calm - N/A   Scattered Clouds
4:35 AM 46.4 °F - 17.6 °F 32% 30.14 in 10.0 mi Calm Calm - N/A   Scattered Clouds
4:55 AM 46.4 °F 45.2 °F 19.4 °F 34% 30.14 in 10.0 mi East 3.5 mph - N/A   Scattered Clouds
5:15 AM 46.4 °F 44.3 °F 17.6 °F 32% 30.13 in 10.0 mi ENE 4.6 mph - N/A   Clear
5:35 AM 46.4 °F 45.2 °F 19.4 °F 34% 30.14 in 10.0 mi ESE 3.5 mph - N/A   Scattered Clouds
5:55 AM 44.6 °F 42.2 °F 17.6 °F 34% 30.13 in 10.0 mi SE 4.6 mph - N/A   Mostly Cloudy
6:15 AM 44.6 °F 41.4 °F 17.6 °F 34% 30.14 in 10.0 mi SW 5.8 mph - N/A   Overcast
6:35 AM 44.6 °F 40.7 °F 17.6 °F 34% 30.14 in 10.0 mi SSW 6.9 mph - N/A   Mostly Cloudy
6:55 AM 44.6 °F 43.1 °F 17.6 °F 34% 30.14 in 10.0 mi SE 3.5 mph - N/A   Overcast
7:15 AM 46.4 °F 45.2 °F 17.6 °F 32% 30.14 in 10.0 mi SSE 3.5 mph - N/A   Mostly Cloudy
7:35 AM 46.4 °F 43.5 °F 17.6 °F 32% 30.15 in 10.0 mi SW 5.8 mph - N/A   Partly Cloudy
7:55 AM 48.2 °F - 19.4 °F 32% 30.16 in 10.0 mi South 6.9 mph - N/A   Clear
8:15 AM 48.2 °F - 19.4 °F 32% 30.16 in 10.0 mi SE 8.1 mph - N/A   Clear
8:35 AM 50.0 °F - 17.6 °F 28% 30.17 in 10.0 mi SSW 4.6 mph - N/A   Partly Cloudy
8:55 AM 53.6 °F - 19.4 °F 26% 30.16 in 10.0 mi South 10.4 mph - N/A   Partly Cloudy
9:15 AM 55.4 °F - 21.2 °F 26% 30.16 in 10.0 mi South 11.5 mph 20.7 mph N/A   Clear
9:35 AM 57.2 °F - 23.0 °F 27% 30.16 in 10.0 mi WSW 17.3 mph 27.6 mph N/A   Scattered Clouds
9:55 AM 55.4 °F - 32.0 °F 41% 30.17 in 10.0 mi SW 18.4 mph 23.0 mph N/A   Scattered Clouds
10:15 AM 57.2 °F - 30.2 °F 36% 30.17 in 10.0 mi SW 16.1 mph 23.0 mph N/A   Scattered Clouds
10:35 AM 57.2 °F - 32.0 °F 38% 30.17 in 10.0 mi SW 15.0 mph 24.2 mph N/A   Mostly Cloudy
10:55 AM 59.0 °F - 32.0 °F 36% 30.17 in 10.0 mi WSW 13.8 mph 26.5 mph N/A   Mostly Cloudy
11:15 AM 57.2 °F - 32.0 °F 38% 30.17 in 10.0 mi SW 27.6 mph 32.2 mph N/A   Mostly Cloudy
11:35 AM 57.2 °F - 32.0 °F 38% 30.17 in 10.0 mi SW 25.3 mph 29.9 mph N/A   Scattered Clouds
11:55 AM 57.2 °F - 32.0 °F 38% 30.17 in 10.0 mi SW 20.7 mph 26.5 mph N/A   Partly Cloudy
12:15 PM 59.0 °F - 32.0 °F 36% 30.16 in 10.0 mi SW 17.3 mph 23.0 mph N/A   Clear
12:35 PM 59.0 °F - 30.2 °F 34% 30.15 in 10.0 mi WSW 12.7 mph 25.3 mph N/A   Mostly Cloudy
12:55 PM 60.8 °F - 26.6 °F 27% 30.14 in 10.0 mi SSW 23.0 mph 33.4 mph N/A   Mostly Cloudy
1:15 PM 62.6 °F - 26.6 °F 26% 30.14 in 10.0 mi SW 19.6 mph 29.9 mph N/A   Scattered Clouds
1:35 PM 64.4 °F - 24.8 °F 22% 30.13 in 10.0 mi SW 21.9 mph 34.5 mph N/A   Partly Cloudy
1:55 PM 64.4 °F - 26.6 °F 24% 30.12 in 10.0 mi SW 20.7 mph 29.9 mph N/A   Partly Cloudy
2:15 PM 66.2 °F - 24.8 °F 21% 30.12 in 10.0 mi WSW 18.4 mph 31.1 mph N/A   Partly Cloudy
2:35 PM 64.4 °F - 24.8 °F 22% 30.11 in 10.0 mi SW 19.6 mph 29.9 mph N/A   Partly Cloudy
2:55 PM 66.2 °F - 24.8 °F 21% 30.11 in 10.0 mi WSW 18.4 mph 24.2 mph N/A   Partly Cloudy
3:15 PM 64.4 °F - 24.8 °F 22% 30.10 in 10.0 mi WSW 16.1 mph 26.5 mph N/A   Clear
3:35 PM 64.4 °F - 24.8 °F 22% 30.09 in 10.0 mi SSW 18.4 mph 27.6 mph N/A   Scattered Clouds
3:55 PM 64.4 °F - 24.8 °F 22% 30.09 in 10.0 mi WSW 12.7 mph - N/A   Mostly Cloudy
4:15 PM 64.4 °F - 24.8 °F 22% 30.09 in 10.0 mi SW 16.1 mph 26.5 mph N/A   Mostly Cloudy
4:55 PM 64.4 °F - 24.8 °F 22% 30.09 in 10.0 mi SSW 19.6 mph 31.1 mph N/A   Partly Cloudy
5:15 PM 62.6 °F - 24.8 °F 24% 30.09 in 10.0 mi SW 24.2 mph 27.6 mph N/A   Mostly Cloudy
5:35 PM 64.4 °F - 26.6 °F 24% 30.09 in 10.0 mi SW 20.7 mph 29.9 mph N/A   Scattered Clouds
5:55 PM 64.4 °F - 26.6 °F 24% 30.09 in 10.0 mi SW 19.6 mph 31.1 mph N/A   Clear
6:15 PM 62.6 °F - 26.6 °F 26% 30.09 in 10.0 mi SW 13.8 mph 19.6 mph N/A   Partly Cloudy
6:35 PM 64.4 °F - 26.6 °F 24% 30.09 in 10.0 mi SSW 16.1 mph 25.3 mph N/A   Partly Cloudy
6:55 PM 62.6 °F - 26.6 °F 26% 30.10 in 10.0 mi SW 18.4 mph - N/A   Clear
7:15 PM 60.8 °F - 26.6 °F 27% 30.10 in 10.0 mi SW 15.0 mph - N/A   Clear
7:35 PM 59.0 °F - 24.8 °F 27% 30.11 in 10.0 mi SW 15.0 mph 19.6 mph N/A   Clear
7:55 PM 59.0 °F - 24.8 °F 27% 30.11 in 10.0 mi SW 16.1 mph 23.0 mph N/A   Clear
8:15 PM 59.0 °F - 24.8 °F 27% 30.12 in 10.0 mi SW 11.5 mph 17.3 mph N/A   Clear
8:35 PM 57.2 °F - 24.8 °F 29% 30.13 in 10.0 mi SW 11.5 mph - N/A   Clear
8:55 PM 55.4 °F - 24.8 °F 31% 30.13 in 10.0 mi SSW 6.9 mph - N/A   Clear
9:15 PM 53.6 °F - 24.8 °F 33% 30.14 in 10.0 mi SSE 6.9 mph - N/A   Clear
9:35 PM 53.6 °F - 24.8 °F 33% 30.15 in 10.0 mi SSW 8.1 mph - N/A   Clear
9:55 PM 51.8 °F - 24.8 °F 35% 30.15 in 10.0 mi SSW 9.2 mph - N/A   Clear
10:15 PM 51.8 °F - 24.8 °F 35% 30.16 in 10.0 mi SSW 9.2 mph - N/A   Clear
10:35 PM 51.8 °F - 24.8 °F 35% 30.16 in 10.0 mi SW 9.2 mph - N/A   Clear
10:55 PM 53.6 °F - 24.8 °F 33% 30.16 in 10.0 mi SW 9.2 mph - N/A   Clear
11:15 PM 53.6 °F - 24.8 °F 33% 30.15 in 10.0 mi SW 11.5 mph - N/A   Clear
11:35 PM 53.6 °F - 24.8 °F 33% 30.15 in 10.0 mi SW 11.5 mph - N/A   Clear
11:55 PM 51.8 °F - 24.8 °F 35% 30.16 in 10.0 mi SW 8.1 mph - N/A   Clear